Location: Go�ngahuizen
(53.0821°N, 5.8849°E)
Time: 09:03:28
(UTC+00:00)

Cosmos 1934 Rocket - Pass Details

Date: 09 April 2020
Orbit: 937 x 1000 km, 83.0° (Epoch: 24 May)

Event Time Altitude Azimuth Distance (km) Brightness Sun altitude
Rises 22:01:13 0° 347° (NNW) 3,703 8.3 -25.5°
Reaches altitude 10° 22:03:47 10° 344° (NNW) 2,742 7.4 -25.7°
Maximum altitude 22:09:55 60° 267° (W) 1,106 4.3 -26.1°
Enters shadow 22:11:29 46° 216° (SW) 1,272 4.3 -26.2°
